Terminal Aerodrome Forecast
Issued by NWS

Home | Current Version | Previous Version | Text Only | Print | Product List | Glossary On
Versions: 1 2 3 4 5 6 7 8 9 10 11 12 13 14 15 16
000
FTUS46 KMTR 210500
TAFSJC
TAF
KSJC 210520Z 2106/2206 24005KT P6SM SCT012 OVC060
     FM210800 12005KT 6SM -RA BR SCT010 BKN025 OVC035
     FM210900 VRB03KT P6SM VCSH BKN015 OVC050
     FM211900 21007KT P6SM SCT015 BKN050
     FM220300 VRB03KT P6SM BKN009=

USA.gov is the U.S. government's official web portal to all federal, state and local government web resources and services.